TimeCST,TemperatureF,Dew PointF,Humidity,Sea Level PressureIn,VisibilityMPH,Wind Direction,Wind SpeedMPH,Gust SpeedMPH,PrecipitationIn,Events,Conditions,WindDirDegrees,DateUTC
12:15 AM,28.4,21.2,74,30.34,10.0,NW,8.1,-,N/A,,Clear,310,2013-01-17 06:15:00
12:35 AM,30.2,23.0,75,30.35,10.0,NW,8.1,-,N/A,,Clear,320,2013-01-17 06:35:00
12:55 AM,30.2,23.0,75,30.37,10.0,NW,6.9,-,N/A,,Clear,310,2013-01-17 06:55:00
1:15 AM,30.2,21.2,69,30.38,10.0,NW,5.8,-,N/A,,Clear,310,2013-01-17 07:15:00
1:35 AM,28.4,21.2,74,30.39,10.0,West,6.9,-,N/A,,Clear,270,2013-01-17 07:35:00
1:55 AM,28.4,21.2,74,30.40,10.0,West,6.9,-,N/A,,Clear,270,2013-01-17 07:55:00
2:15 AM,28.4,21.2,74,30.40,10.0,West,6.9,-,N/A,,Clear,280,2013-01-17 08:15:00
2:35 AM,28.4,21.2,74,30.40,10.0,West,8.1,-,N/A,,Clear,280,2013-01-17 08:35:00
2:55 AM,28.4,21.2,74,30.41,10.0,WNW,8.1,-,N/A,,Clear,290,2013-01-17 08:55:00
3:15 AM,28.4,21.2,74,30.41,10.0,WNW,8.1,-,N/A,,Clear,300,2013-01-17 09:15:00
3:35 AM,28.4,21.2,74,30.41,10.0,WNW,8.1,-,N/A,,Clear,300,2013-01-17 09:35:00
3:55 AM,28.4,21.2,74,30.41,10.0,WNW,9.2,-,N/A,,Clear,290,2013-01-17 09:55:00
4:15 AM,28.4,21.2,74,30.41,10.0,WNW,10.4,-,N/A,,Clear,290,2013-01-17 10:15:00
4:35 AM,28.4,21.2,74,30.41,10.0,WNW,9.2,-,N/A,,Clear,300,2013-01-17 10:35:00
4:55 AM,26.6,21.2,80,30.42,10.0,WNW,6.9,-,N/A,,Clear,300,2013-01-17 10:55:00
5:15 AM,26.6,19.4,74,30.42,10.0,WNW,8.1,-,N/A,,Clear,300,2013-01-17 11:15:00
5:35 AM,26.6,19.4,74,30.43,10.0,WNW,6.9,-,N/A,,Clear,300,2013-01-17 11:35:00
5:55 AM,26.6,19.4,74,30.44,10.0,WNW,8.1,-,N/A,,Clear,290,2013-01-17 11:55:00
6:15 AM,26.6,19.4,74,30.44,10.0,WNW,8.1,-,N/A,,Clear,290,2013-01-17 12:15:00
6:35 AM,26.6,19.4,74,30.44,10.0,NW,6.9,-,N/A,,Clear,310,2013-01-17 12:35:00
6:55 AM,24.8,19.4,80,30.44,10.0,NW,8.1,-,N/A,,Clear,320,2013-01-17 12:55:00
7:15 AM,26.6,19.4,74,30.44,10.0,NNW,6.9,-,N/A,,Clear,330,2013-01-17 13:15:00
7:35 AM,24.8,19.4,80,30.44,10.0,NNW,6.9,-,N/A,,Clear,340,2013-01-17 13:35:00
7:55 AM,24.8,19.4,80,30.45,10.0,NNW,6.9,-,N/A,,Clear,340,2013-01-17 13:55:00
8:15 AM,24.8,19.4,80,30.46,10.0,NNW,5.8,-,N/A,,Clear,330,2013-01-17 14:15:00
8:35 AM,26.6,19.4,74,30.47,10.0,NW,5.8,-,N/A,,Clear,320,2013-01-17 14:35:00
8:55 AM,28.4,21.2,74,30.48,10.0,NW,6.9,-,N/A,,Clear,310,2013-01-17 14:55:00
9:15 AM,30.2,23.0,75,30.49,10.0,NW,8.1,-,N/A,,Clear,310,2013-01-17 15:15:00
9:35 AM,33.8,24.8,70,30.51,10.0,NW,9.2,-,N/A,,Clear,320,2013-01-17 15:35:00
9:55 AM,35.6,24.8,65,30.51,10.0,NNW,9.2,-,N/A,,Clear,330,2013-01-17 15:55:00
10:15 AM,37.4,24.8,60,30.53,10.0,NNW,5.8,-,N/A,,Clear,340,2013-01-17 16:15:00
10:35 AM,39.2,23.0,52,30.53,10.0,NE,3.5,-,N/A,,Clear,50,2013-01-17 16:35:00
10:55 AM,39.2,24.8,56,30.53,10.0,NE,4.6,-,N/A,,Clear,50,2013-01-17 16:55:00
11:15 AM,41.0,23.0,49,30.53,10.0,Calm,Calm,-,N/A,,Clear,0,2013-01-17 17:15:00
11:35 AM,42.8,23.0,46,30.52,10.0,Calm,Calm,-,N/A,,Clear,0,2013-01-17 17:35:00
11:55 AM,42.8,23.0,46,30.51,10.0,SSE,3.5,-,N/A,,Clear,150,2013-01-17 17:55:00
12:15 PM,44.6,23.0,43,30.50,10.0,Calm,Calm,-,N/A,,Clear,0,2013-01-17 18:15:00
12:35 PM,44.6,21.2,39,30.49,10.0,SE,3.5,-,N/A,,Clear,140,2013-01-17 18:35:00
12:55 PM,46.4,23.0,40,30.48,10.0,South,4.6,-,N/A,,Clear,180,2013-01-17 18:55:00
1:15 PM,46.4,21.2,37,30.47,10.0,SE,3.5,-,N/A,,Clear,130,2013-01-17 19:15:00
1:35 PM,46.4,21.2,37,30.46,10.0,ESE,4.6,-,N/A,,Clear,120,2013-01-17 19:35:00
1:55 PM,48.2,21.2,34,30.45,10.0,SE,5.8,-,N/A,,Clear,140,2013-01-17 19:55:00
2:15 PM,48.2,21.2,34,30.44,10.0,ESE,5.8,-,N/A,,Clear,120,2013-01-17 20:15:00
2:35 PM,50.0,19.4,30,30.43,10.0,SSE,6.9,-,N/A,,Clear,160,2013-01-17 20:35:00
2:55 PM,50.0,19.4,30,30.42,10.0,SE,8.1,-,N/A,,Clear,140,2013-01-17 20:55:00
3:15 PM,50.0,21.2,32,30.41,10.0,SE,8.1,-,N/A,,Clear,140,2013-01-17 21:15:00
3:35 PM,50.0,21.2,32,30.41,10.0,South,6.9,-,N/A,,Clear,170,2013-01-17 21:35:00
3:55 PM,50.0,21.2,32,30.41,10.0,South,8.1,-,N/A,,Clear,170,2013-01-17 21:55:00
4:15 PM,50.0,21.2,32,30.41,10.0,South,9.2,-,N/A,,Clear,190,2013-01-17 22:15:00
4:35 PM,50.0,19.4,30,30.41,10.0,South,8.1,-,N/A,,Clear,180,2013-01-17 22:35:00
4:55 PM,48.2,19.4,32,30.41,10.0,South,8.1,-,N/A,,Clear,170,2013-01-17 22:55:00
5:35 PM,44.6,19.4,37,30.42,10.0,South,8.1,-,N/A,,Clear,180,2013-01-17 23:35:00
6:15 PM,37.4,17.6,45,30.42,10.0,South,8.1,-,N/A,,Clear,180,2013-01-18 00:15:00
6:55 PM,33.8,17.6,52,30.42,10.0,South,8.1,-,N/A,,Clear,180,2013-01-18 00:55:00
7:35 PM,32.0,17.6,55,30.42,10.0,South,10.4,-,N/A,,Clear,180,2013-01-18 01:35:00
7:55 PM,32.0,19.4,60,30.42,10.0,South,10.4,-,N/A,,Clear,170,2013-01-18 01:55:00
8:15 PM,33.8,19.4,56,30.42,10.0,South,10.4,-,N/A,,Clear,170,2013-01-18 02:15:00
8:55 PM,32.0,21.2,64,30.42,10.0,South,9.2,-,N/A,,Clear,170,2013-01-18 02:55:00
9:15 PM,33.8,21.2,60,30.42,10.0,South,10.4,-,N/A,,Clear,170,2013-01-18 03:15:00
9:35 PM,32.0,21.2,64,30.42,10.0,South,11.5,-,N/A,,Clear,180,2013-01-18 03:35:00
9:55 PM,33.8,21.2,60,30.41,10.0,South,12.7,-,N/A,,Clear,180,2013-01-18 03:55:00
11:15 PM,32.0,21.2,64,30.40,10.0,South,11.5,-,N/A,,Clear,180,2013-01-18 05:15:00
11:35 PM,32.0,21.2,64,30.39,10.0,South,10.4,-,N/A,,Clear,190,2013-01-18 05:35:00
11:55 PM,30.2,21.2,69,30.39,10.0,South,8.1,-,N/A,,Clear,190,2013-01-18 05:55:00